Home > Weather > Melk > Past weeks

Flag for Austria Past Weather in Melk, Lower Austria, Austria — Yesterday and Last 2 Weeks

Now
69 °F

Mild.


Feels Like: 69 °F
Forecast: 50 / 74 °F
Wind: 1 mph from Northwest

Location: Amstetten

Current Time: Aug 29, 2016 at 2:31:20 AM

Latest Report: Aug 29, 2016 at 1:00 AM


Visibility: N/A

Pressure: 30.00 "Hg

Humidity: 98%

Dew Point: 68 °F

Location of MelkLocation

Past Weather in Melk — Graph

°F

Melk Temperature Yesterday

Maximum temperature yesterday: 88 °F (at 5:00 PM)
Minimum temperature yesterday: 58 °F (at 7:00 AM)
Average temperature yesterday: 73 °F

High & Low Weather Summary for the Past Weeks

 TemperatureHumidityPressure
High88 °F (Aug 28, 5:00 PM)100% (Aug 14, 1:00 AM)30.42 "Hg (Aug 14, 1:00 AM)
Low51 °F (Aug 18, 6:00 AM)39% (Aug 18, 1:00 PM)29.78 "Hg (Aug 18, 5:00 PM)
Average67 °F79%30.08 "Hg
* Reported Aug 14 1:00 AM — Aug 29 1:00 AM, Melk, Weather by CustomWeather, © 2016

Note: Actual official high and low records may vary slightly from our data, if they occured in-between our weather recording intervals... More about our weather records

Advertising

Melk Weather History for the Previous 24 Hours

Scroll right to see more
 ConditionsComfort  
Time TempWeatherWind HumidityBarometerVisibility
1:00 AM
Mon, Aug 29
69 °FMild.1 mph98%30.00 "HgN/A
12:00 AM69 °FMild.1 mph97%30.00 "HgN/A
11:00 PM
Sun, Aug 28
70 °FMild.No wind97%29.98 "HgN/A
10:00 PM73 °FMild.No wind90%29.97 "HgN/A
9:00 PM74 °FMild.No wind87%29.96 "HgN/A
8:00 PM78 °FWarm.1 mph80%29.94 "HgN/A
7:00 PM84 °FWarm.1 mph62%29.93 "HgN/A
6:00 PM87 °FWarm.1 mph54%29.94 "HgN/A
5:00 PM88 °FHot.2 mph50%29.96 "HgN/A
4:00 PM87 °FWarm.1 mph53%29.97 "HgN/A
3:00 PM85 °FWarm.2 mph57%29.98 "HgN/A
2:00 PM84 °FWarm.2 mph58%30.01 "HgN/A
1:00 PM82 °FWarm.1 mph62%30.02 "HgN/A
12:00 PM78 °FWarm.1 mph68%30.04 "HgN/A
11:00 AM74 °FMild.1 mph74%30.06 "HgN/A
10:00 AM69 °FMild.1 mph80%30.06 "HgN/A
9:00 AM66 °FMild.1 mph89%30.07 "HgN/A
8:00 AM62 °FCool.1 mph97%30.06 "HgN/A
7:00 AM58 °FCool.No wind99%30.06 "HgN/A
6:00 AM59 °FCool.No wind100%30.05 "HgN/A
5:00 AM60 °FCool.No wind98%30.04 "HgN/A
4:00 AM62 °FCool.2 mph93%30.04 "HgN/A
3:00 AM65 °FMild.2 mph91%30.03 "HgN/A
2:00 AM65 °FMild.2 mph90%30.04 "HgN/A
Weather by CustomWeather, © 2016

See weather overviewHow to use our weather pages